YAOGAN-30 V (46808 NORAD) Tracking and Keplerian Element Data

This shows tracking and keplerian element data for the satellite.

Feedback or suggestion? Click here.




ElementValue
Catalog46808
NameYAOGAN-30 V
Epoch Orbit408
Epoch Day328.03534646
Epoch Year2020
RAAN77.263
Inclination34.9969
Eccentricity0.000231
Argument of Perigee30.6618
Mean Anonmoly329.4222
Mean Motion14.89816194
Decay Rate2.11E-06
L11 46808U 20076B 20328.03534646 .00000211 00000-0 24351-4 0 9990
L22 46808 34.9969 77.2630 0002310 30.6618 329.4222 14.89816194 4080

Live tracking and technical data element details for YAOGAN-30 V (NORAD 46808). YAOGAN-30 V can be tracked NOW for your location showing map with azimuth and elevation plus other details from your city location.

Track the satellite on the map from your city or location and see movement details for azimuth, elevation, latitude, longitude, range, height, and movement on the map or in text.







IsCatalogInMostPopularTable: catalog: 46808, numindb: 8
Update: records affected: 1



GetName: 46808 YAOGAN-30 V

Hit Count: updated at: Tue, 24 Nov 2020 12:37:42 GMT